Domov               UVHVVR             MKGP            O straneh              
ZDRAVSTVENO VARSTVO RASTLIN
  MREŽA AGROMET. POSTAJ
 ► PROGNOSTIČNA OBVESTILA
AGROMETEOROLOŠKI PODATKI -
ARSO
OBVLADOVANJE TVEGANJ ZARADI
NEUGODNIH VREMENSKIH RAZMER
  ► NARAVNE NESREČE
  ► SUŠA/MOČA
  ► NAMAKANJE
  ► ŽLED (gozdarstvo)
KARTOGRAFSKI PRIKAZI
SPLETNE POVEZAVE
PROJEKTI IN PUBLIKACIJE

AGROMETEOROLOŠKA MREŽA: VREMENSKE POSTAJE IN FENOLOŠKA OPAZOVANJA

Pregled podatkov za lokacijo Bizeljsko, meteorološka postaja 38541

Pregled senzorjev na lokaciji

ID Ime Zadnja
vrednost
Datum
zadnje
spremembe
Tip
senzorja
2027 Temperatura 2 m ( °C) 19,93 °C 24.8.2017 08:30 50YA
2028 Relativna vlaga 2 m (% RH) 61,25 % RH 24.8.2017 08:30 50YA
2029 Omočenost lista (U) 0 U 24.8.2017 08:30 A730WET
2030 Padavine 0.2 mm (mm) 0 mm 24.8.2017 08:30 Rain-O-Matic

Pregled podatkov zadnjih 24 ur

Zap.
št.
Datum in čas Bizeljsko
Omočenost
lista
Padavine
0.2
mm
Relativna
vlaga
2
m
Temperatura
2
m
0 24.8.2017 07:30 0 0 61,25 19,93
1 24.8.2017 07:00 0 0 64,49 18,78
2 24.8.2017 06:30 0 0 65,57 17,19
3 24.8.2017 06:00 0 0 73,19 14,68
4 24.8.2017 05:30 0 0 75,04 13,82
5 24.8.2017 05:00 0 0 75,95 13,63
6 24.8.2017 04:30 0 0 72,87 14,16
7 24.8.2017 04:00 0 0 69,96 14,92
8 24.8.2017 03:30 0 0 64,18 16,07
9 24.8.2017 03:00 0 0 62,61 16,36
10 24.8.2017 02:30 0 0 62,49 16,19
11 24.8.2017 02:00 0 0 61,59 16,17
12 24.8.2017 01:30 0 0 60,44 16,9
13 24.8.2017 01:00 0 0 60,22 17,02
14 24.8.2017 00:30 0 0 60,98 16,9
15 24.8.2017 00:00 0 0 54,16 18,39
16 23.8.2017 23:30 0 0 52,11 18,83
17 23.8.2017 23:00 0 0 52,5 19
18 23.8.2017 22:30 0 0 52,45 19,15
19 23.8.2017 22:00 0 0 53,72 19,02
20 23.8.2017 21:30 0 0 53,65 19,17
21 23.8.2017 21:00 0 0 53,41 19,22
22 23.8.2017 20:30 0 0 52,82 19,32
23 23.8.2017 20:00 0 0 52,89 18,95
24 23.8.2017 19:30 0 0 53,63 18,95
25 23.8.2017 19:00 0 0 54,46 19,19
26 23.8.2017 18:30 0 0 53,09 19,78
27 23.8.2017 18:00 0 0 49,47 21,29
28 23.8.2017 17:30 0 0 45,25 22,93
29 23.8.2017 17:00 0 0 42,66 23,76
30 23.8.2017 16:30 0 0 40,81 24,27
31 23.8.2017 16:00 0 0 39,8 24,76
32 23.8.2017 15:30 0 0 40,17 24,98
33 23.8.2017 15:00 0 0 45,47 23,54
34 23.8.2017 14:30 0 0 47,47 22,52
35 23.8.2017 14:00 0 0 47,86 23,13
36 23.8.2017 13:30 0 0 47,62 23
37 23.8.2017 13:00 0 0 44,2 23,22
38 23.8.2017 12:30 0 0 43,79 22,91
39 23.8.2017 12:00 0 0 46,37 22,42
40 23.8.2017 11:30 0 0 43,96 22,49
41 23.8.2017 11:00 0 0 45,64 22,78
42 23.8.2017 10:30 0 0 46,98 22,2
43 23.8.2017 10:00 0 0 45,03 21,9
44 23.8.2017 09:30 0 0 51,21 20,98
45 23.8.2017 09:00 0 0 57,12 20,68
© 2011 Ministrstvo za kmetijstvo, gozdarstvo in prehrano. Vse pravice pridržane.